STARLINK-11276, 61244

Orbit data source: Space-Track

STARLINK-11276, 61244 is a payload satellite owned by SpaceX/Seattle (US) in LEO that was launched on Wed, 25 Sep 2024 UTC via an FALCON 9 launch vehicle from the Air Force Western Test Range (AFWTR). Payload-class satellites include a variety of spacecraft equipped with specific instruments for various scientific and technological missions. These include communications satellites like Starlink; space stations such as the ISS; scientific satellites like the Hubble; Earth observation satellites from companies like Planet Labs, Umbra, and HawkEye 360; GPS; miniature CubeSats for education and research; and military/defense satellites.

Loading next visibility...
Identifier
61244, 2024-175B
Orbit
LEO
Country
Flag of USUS
Related business
Manufacturer
SpaceX/Seattle
Mission
Operational Commercial Communications
Bus & Motor
STARLINK V2MD, Unknown motor
Mass
960 kg wet, ~910 kg dry
Launch date (UTC)
2024-09-25 (1 year ago)
Launch vehicle
FALCON 9
Launch site
Air Force Western Test Range (AFWTR)
Object type
Payload
Rocket body
Debris
Shape & HBR
Box + 2 Pan, 18.1 m
Radar Cross Section
36.964 m², Large (>1 m²)

Expand to show TLE details & history
Last TLE update: 11 hours ago

TLE from 11 hours ago
0 STARLINK-11276
1 61244U 24175B   25309.25893829  .00000474  00000-0  87776-5 0  9996
2 61244  53.1592 309.6360 0001782 102.9244 257.1973 15.69706526 63821
Epoch: 2025-11-05T06:12Z
TLE epoch observation values (Epoch: 2025-11-05T06:12:52.268Z)
Latitude
-0.00001°
Longitude
171.68403°
Altitude
360.918 km
Speed
7.694 km/s
True Right ascension
20h 38m 32s
True Declination
0° 00' 00"
Sunlit
Object was in daylight at epoch
Visualization orbit readout
Latitude
Unknown
Longitude
Unknown
Altitude
Unknown
Speed
Unknown
Apparent Right ascension
Unknown
Apparent Declination
Unknown
Sunlit
N/A
Visualization observer readout
Local Sidereal Time
13:20:20
Azimuth
Unknown
Elevation
Unknown
Doppler factor
Unknown
Orbital elements
Apogee altitude
361.198 km
Perigee altitude
358.797 km
Semi-major axis
6,738.135 km
Eccentricity
0.00018
Inclination
53.1592°
RAAN
309.636°
Arg. of periapsis
102.9244°
True anomaly
257.17739°
Mean anomaly
257.1973°
Eccentric anomaly
257.18734°
Mean motion
3.92404 °/min
Orbital period
91.74 mins
BSTAR
0.0000087776
Loading maneuver chart data...
Computing Atmospheric mass density...
Loading historical data...
Loading historical data...
Loading historical data...
Loading historical data...
Loading historical data...
Loading historical data...
Loading historical data...

Documentation

Showing up to 5 results
|